Regional Weather Roundup
Issued by NWS

Home | Current Version | Previous Version | Text Only | Print | Product List | Glossary Off
Versions: 1 2 3 4 5 6 7 8 9 10 11 12 13 14 15 16 17 18 19 20 21 22 23 24 25 26 27 28 29 30 31 32 33 34 35 36 37 38 39 40 41 42 43 44 45 46 47 48 49 50

000
ASUS43 KMPX 170001
RWRMN
WEATHER ROUNDUP FOR MINNESOTA
NATIONAL WEATHER SERVICE TWIN CITIES/CHANHASSEN MN
700 PM CDT WED AUG 16 2017


NOTE: "FAIR" INDICATES FEW OR NO CLOUDS BELOW 12,000 FEET WITH NO
SIGNIFICANT WEATHER AND/OR OBSTRUCTIONS TO VISIBILITY. N/A MEANS
CURRENT SKY AND/OR WEATHER CONDITIONS ARE NOT AVAILABLE.

MNZ060>063-068>070-170100-
   Twin Cities Metro

CITY           SKY/WX    TMP DP  RH WIND       PRES   REMARKS
TWIN CITIES    LGT RAIN  76  69  79 E15       29.69F
6HR MIN TEMP:  72; 6HR MAX TEMP:  78; 6HR PCP: TRACE;

ST PAUL        CLOUDY    76  70  82 E14       29.71F
CRYSTAL        CLOUDY    75  66  73 NE6       29.69F
LAKEVILLE      RAIN      72  72 100 E10       29.68F
EDEN PRAIRIE   LGT RAIN  76  70  82 E12       29.67F
6HR MIN TEMP:  73; 6HR MAX TEMP:  78; 6HR PCP: TRACE;

SOUTH ST PAUL  CLOUDY    76  69  79 E7        29.70F
LAKE ELMO      FAIR      75  70  83 E10       29.74S
$$
MNZ001>005-007-008-013>017-022>024-027-028-170100-
   Northwest Minnesota

CITY           SKY/WX    TMP DP  RH WIND       PRES   REMARKS
BEMIDJI        RAIN      64  64  98 E6        29.84F
HALLOCK        CLOUDY    68  63  83 E8        29.84F
ROSEAU         CLOUDY    64  59  82 E7        29.86F HAZE
WARROAD        CLOUDY    64  61  88 E9        29.87F
THIEF RVR FALL LGT RAIN  65  64  97 NE7       29.85S FOG
CROOKSTON      CLOUDY    64  64 100 N5        29.83F
FOSSTON        DRIZZLE   64  63  94 CALM      29.84S
DETROIT LAKES  RAIN      64  64 100 NE3       29.82F
MOORHEAD       DRIZZLE   66  64  94 N8        29.81F
PARK RAPIDS    LGT RAIN  67  65  93 E5        29.82F
MAHNOMEN       DRIZZLE   65  64  97 CALM      29.82F
$$
MNZ006-009>011-018-025>026-170100-
   North Central Minnesota

CITY           SKY/WX    TMP DP  RH WIND       PRES   REMARKS
BAUDETTE       LGT RAIN  62  62 100 E9        29.86F
FLAG ISLAND    CLOUDY    63  57  82 E3        29.87F
INTL FALLS     LGT RAIN  62  60  93 E5        29.89F FOG
6HR MIN TEMP:  61; 6HR MAX TEMP:  71; 6HR PCP:  0.75;

WASKISH        LGT RAIN  63  63 100 E6        29.85F
BIG FORK       LGT RAIN  64  63  94 E3        29.86F
LONGVILLE      DRIZZLE   64  63  94 CALM      29.84S
GRAND RAPIDS   LGT RAIN  63  62  97 VRB5      29.87F
CRANE LAKE     DRIZZLE   61  59  94 CALM      29.92F
ORR            DRIZZLE   61  57  88 E3        29.87S
COOK           RAIN      63  61  94 CALM      29.89F
WALKER         DRIZZLE   64  63  96 E3        29.83F
$$
MNZ012-019>021-037-170100-
   Northeast Minnesota

CITY           SKY/WX    TMP DP  RH WIND       PRES   REMARKS
DULUTH         CLOUDY    60  60 100 E13       29.86F FOG
6HR MIN TEMP:  60; 6HR MAX TEMP:  64; 6HR PCP:  0.39;

ELY            DRIZZLE   61  57  88 E5        29.91F
HIBBING        LGT RAIN  61  61 100 SE7       29.87F
EVELETH        CLOUDY    63  60  90 E3        29.89F
DULUTH HARBOR  CLOUDY    63  61  94 NE26      29.86S
$$
MNZ029>031-032-039>041-046>048-054>057-064-170100-
   West Central Minnesota

CITY           SKY/WX    TMP DP  RH WIND       PRES   REMARKS
FERGUS FALLS   DRIZZLE   66  66 100 N5        29.78F
WHEATON        LGT RAIN  66  64  94 N7        29.78F
MORRIS         LGT RAIN  68  66  94 NE9       29.74F
ALEXANDRIA     LGT RAIN  67  66  97 NE10      29.79F FOG
ELBOW LAKE     RAIN      66  66 100 NE5       29.78S
WADENA         LGT RAIN  64  64 100 NE6       29.80S
GLENWOOD       RAIN      66  64  94 NE12      29.77F
APPLETON       LGT RAIN  68  64  88 N12G17    29.72F
BENSON         RAIN      68  66  94 NE9       29.73F
ORTONVILLE     LGT RAIN  66  64  94 MISG      29.74S
MADISON        HVY RAIN  70  70 100 N10       29.71F
WILLMAR        RAIN      68  68 100 NE18      29.69F
$$
MNZ033>034-036-042>043-049>051-058-059-170100-
   Central Minnesota

CITY           SKY/WX    TMP DP  RH WIND       PRES   REMARKS
ST CLOUD       CLOUDY    69  68  96 NE8       29.74F
6HR MIN TEMP:  69; 6HR MAX TEMP:  71; 6HR PCP: TRACE;

SAUK CENTRE    RAIN      66  65  97 NE7       29.77F
PAYNESVILLE    RAIN      67  66  97 NE12G18   29.73F
AITKIN         CLOUDY    63  61  94 NE6       29.81F FOG
PINE RIVER     RAIN      63  63 100 NE5       29.85F
BRAINERD       CLOUDY    65  64  97 E8        29.80F FOG
STAPLES        DRIZZLE   64  64 100 CALM      29.80F
LONG PRAIRIE   LGT RAIN  64  63  94 N6        29.79F
LITTLE FALLS   RAIN      64  63  94 E5        29.79S
LITCHFIELD     RAIN      70  70 100 NE15G22   29.68F
BUFFALO        CLOUDY    73  67  83 N8        29.71F
MAPLE LAKE     LGT RAIN  71  69  94 NE7       29.73F
HUTCHINSON     HVY RAIN  70  69  98 NE12G20   29.66F
$$
MNZ037-044-045-052-053-170100-
   East Central Minnesota

CITY           SKY/WX    TMP DP  RH WIND       PRES   REMARKS
PRINCETON      CLOUDY    72  68  88 N7        29.74F
MORA           CLOUDY    70  64  83 NE3       29.79F
RUSH CITY      RAIN      73  67  82 NE5       29.76F
MOOSE LAKE     CLOUDY    63  59  88 NE6       29.81F
HINCKLEY       CLOUDY    70  66  88 NE6       29.79F
CLOQUET        CLOUDY    61  59  94 E12       29.85F FOG
MCGREGOR       CLOUDY    63  61  94 NE3       29.84S
$$
MNZ071>073-080-081-089-090-097-098-170100-
   Southwest Minnesota

CITY           SKY/WX    TMP DP  RH WIND       PRES   REMARKS
MONTEVIDEO     HVY RAIN  66  66 100 NE17      29.69F
GRANITE FALLS  RAIN      68  67  98 N15G22    29.68F
CANBY          HVY RAIN  67  66  95 N13       29.72F
MARSHALL       RAIN      66  65  96 N21G31    29.64F
REDWOOD FALLS  RAIN      69  67  93 NE9       29.63F FOG
OLIVIA         LGT RAIN  70  68  94 E9G26     29.65F
PIPESTONE      LGT RAIN  66  64  94 N13       29.68F
WINDOM         CLOUDY    73  70  88 S7        29.64F
WORTHINGTON    CLOUDY    69  67  93 SW14G22   29.65S
JACKSON        CLOUDY    72  68  88 S9        29.65F
TRACY          RAIN      68  68 100 N6        29.64F
SLAYTON        RAIN      66  62  86 N6        29.66F
$$
MNZ065>067-074>077-082>085-091>093-170100-
   South Central Minnesota

CITY           SKY/WX    TMP DP  RH WIND       PRES   REMARKS
MANKATO        LGT RAIN  67  65  93 S8        29.67R
NEW ULM        LGT RAIN  70  68  94 CALM      29.64F
ST JAMES       CLOUDY    70  66  88 S7        29.65F
FAIRMONT       CLOUDY    72  70  93 S7        29.65F
GLENCOE        HVY RAIN  72  72 100 NE8       29.65F
FARIBAULT      RAIN      73  72  94 E20G30    29.69S
OWATONNA       HVY RAIN  73  70  88 E18G26    29.67F
WASECA         RAIN      72  70  94 SE8       29.69F
ALBERT LEA     CLOUDY    75  73  94 SE8       29.69F FOG
$$
MNZ078>079-086>088-094>096-170100-
   Southeast Minnesota

CITY           SKY/WX    TMP DP  RH WIND       PRES   REMARKS
ROCHESTER      LGT RAIN  71  70  96 SE12      29.72F
6HR MIN TEMP:  70; 6HR MAX TEMP:  79; 6HR PCP:  0.80;

RED WING       CLOUDY    77  66  69 E9        29.70F
STANTON        HVY RAIN  74  70  86 E10       29.69S
DODGE CENTER   CLOUDY    70  68  94 SE15G24   29.72F
WINONA         CLOUDY    73  72  94 SE12G18   29.75R
AUSTIN         CLOUDY    73  70  88 SE5       29.70F
PRESTON        HVY RAIN  71  68  92 SE12G17   29.75S
$$
ABBREVIATIONS USED IN REMARKS
   TC - TEMPERATURES IN CELSIUS
  WCI - WIND CHILL INDEX
   HX - HEAT INDEX
  VSB - VISIBILITY
$$




USA.gov is the U.S. government's official web portal to all federal, state and local government web resources and services.